TimeCDT,TemperatureF,Dew PointF,Humidity,Sea Level PressureIn,VisibilityMPH,Wind Direction,Wind SpeedMPH,Gust SpeedMPH,PrecipitationIn,Events,Conditions,WindDirDegrees,DateUTC
12:15 AM,64.4,62.6,94,29.90,10.0,South,12.7,16.1,0.01,Rain,Rain,190,2013-05-28 05:15:00
12:35 AM,64.4,62.6,94,29.90,10.0,South,6.9,-,0.02,Rain-Thunderstorm,Rain,190,2013-05-28 05:35:00
12:55 AM,64.4,62.6,94,29.90,10.0,South,9.2,-,0.02,Rain,Light Rain,170,2013-05-28 05:55:00
1:15 AM,64.4,62.6,94,29.89,2.0,SSE,16.1,21.9,0.27,Rain,Heavy Rain,160,2013-05-28 06:15:00
1:35 AM,62.6,62.6,100,29.91,7.0,Calm,Calm,-,0.32,Rain-Thunderstorm,Light Thunderstorms and Rain,0,2013-05-28 06:35:00
1:55 AM,64.4,62.6,94,29.89,10.0,Calm,Calm,-,0.32,Thunderstorm,Overcast,0,2013-05-28 06:55:00
2:15 AM,62.6,62.6,100,29.89,10.0,East,5.8,-,N/A,,Overcast,90,2013-05-28 07:15:00
2:35 AM,62.6,62.6,100,29.88,10.0,ESE,5.8,-,N/A,,Overcast,110,2013-05-28 07:35:00
2:55 AM,62.6,62.6,100,29.87,10.0,SE,8.1,-,N/A,,Overcast,130,2013-05-28 07:55:00
3:15 AM,64.4,62.6,94,29.87,10.0,SE,9.2,-,N/A,,Mostly Cloudy,130,2013-05-28 08:15:00
3:35 AM,62.6,62.6,100,29.87,10.0,SE,6.9,-,N/A,,Overcast,140,2013-05-28 08:35:00
3:55 AM,62.6,62.6,100,29.87,10.0,SE,6.9,-,N/A,,Mostly Cloudy,140,2013-05-28 08:55:00
4:15 AM,62.6,62.6,100,29.86,10.0,SSE,3.5,-,N/A,,Mostly Cloudy,150,2013-05-28 09:15:00
4:35 AM,62.6,60.8,94,29.86,10.0,SSE,4.6,-,N/A,,Mostly Cloudy,150,2013-05-28 09:35:00
4:55 AM,64.4,62.6,94,29.86,10.0,South,6.9,-,N/A,,Mostly Cloudy,170,2013-05-28 09:55:00
5:15 AM,64.4,60.8,88,29.86,10.0,South,6.9,-,N/A,,Scattered Clouds,180,2013-05-28 10:15:00
5:35 AM,64.4,60.8,88,29.86,10.0,South,10.4,16.1,N/A,,Clear,190,2013-05-28 10:35:00
5:55 AM,64.4,60.8,88,29.87,10.0,South,11.5,18.4,N/A,,Scattered Clouds,190,2013-05-28 10:55:00
6:15 AM,64.4,60.8,88,29.87,10.0,SSW,17.3,21.9,N/A,,Scattered Clouds,200,2013-05-28 11:15:00
6:35 AM,66.2,60.8,83,29.88,10.0,SSW,17.3,-,N/A,,Clear,200,2013-05-28 11:35:00
6:55 AM,66.2,60.8,83,29.87,10.0,South,16.1,23.0,N/A,,Clear,190,2013-05-28 11:55:00
7:15 AM,68.0,62.6,83,29.87,10.0,South,17.3,23.0,N/A,,Clear,190,2013-05-28 12:15:00
7:35 AM,68.0,62.6,83,29.86,10.0,SSW,16.1,20.7,N/A,,Scattered Clouds,200,2013-05-28 12:35:00
7:55 AM,68.0,62.6,83,29.86,10.0,SSW,13.8,-,N/A,,Mostly Cloudy,200,2013-05-28 12:55:00
8:15 AM,68.0,62.6,83,29.86,10.0,SSW,13.8,-,0.01,,Scattered Clouds,200,2013-05-28 13:15:00
8:35 AM,69.8,62.6,78,29.86,10.0,SSW,15.0,20.7,0.01,,Clear,200,2013-05-28 13:35:00
8:55 AM,69.8,64.4,83,29.86,10.0,South,16.1,20.7,0.01,,Clear,190,2013-05-28 13:55:00
9:15 AM,69.8,64.4,83,29.88,10.0,SSW,17.3,24.2,N/A,Rain,Light Rain,200,2013-05-28 14:15:00
9:35 AM,69.8,64.4,83,29.89,10.0,SSW,18.4,24.2,N/A,,Scattered Clouds,200,2013-05-28 14:35:00
9:55 AM,71.6,64.4,78,29.87,10.0,SSW,17.3,27.6,N/A,,Light Drizzle,210,2013-05-28 14:55:00
10:15 AM,71.6,64.4,78,29.84,10.0,South,20.7,28.8,N/A,,Scattered Clouds,180,2013-05-28 15:15:00
10:35 AM,69.8,64.4,83,29.84,10.0,South,19.6,27.6,N/A,Rain,Rain,190,2013-05-28 15:35:00
10:55 AM,69.8,64.4,83,29.84,10.0,South,17.3,27.6,N/A,,Mostly Cloudy,180,2013-05-28 15:55:00
11:15 AM,71.6,66.2,83,29.87,10.0,SSW,19.6,26.5,N/A,,Scattered Clouds,200,2013-05-28 16:15:00
11:35 AM,73.4,68.0,83,29.85,10.0,SSW,23.0,28.8,N/A,,Clear,200,2013-05-28 16:35:00
11:55 AM,75.2,68.0,78,29.84,10.0,South,20.7,24.2,N/A,,Clear,190,2013-05-28 16:55:00
12:15 PM,75.2,68.0,78,29.84,10.0,SSW,24.2,31.1,N/A,,Clear,210,2013-05-28 17:15:00
12:35 PM,77.0,68.0,74,29.85,10.0,SSW,26.5,32.2,N/A,,Scattered Clouds,200,2013-05-28 17:35:00
12:55 PM,77.0,68.0,74,29.84,10.0,South,24.2,31.1,N/A,,Mostly Cloudy,190,2013-05-28 17:55:00
1:15 PM,75.2,68.0,78,29.85,10.0,SSW,21.9,31.1,N/A,,Mostly Cloudy,210,2013-05-28 18:15:00
1:35 PM,77.0,68.0,74,29.84,10.0,SSW,21.9,29.9,N/A,,Mostly Cloudy,210,2013-05-28 18:35:00
1:55 PM,78.8,69.8,74,29.84,10.0,SSW,21.9,27.6,N/A,,Scattered Clouds,210,2013-05-28 18:55:00
2:15 PM,78.8,68.0,69,29.85,10.0,SSW,21.9,28.8,N/A,,Mostly Cloudy,210,2013-05-28 19:15:00
2:35 PM,78.8,68.0,69,29.85,10.0,SSW,19.6,27.6,N/A,,Scattered Clouds,210,2013-05-28 19:35:00
2:55 PM,77.0,68.0,74,29.85,10.0,SW,18.4,24.2,N/A,,Scattered Clouds,220,2013-05-28 19:55:00
3:15 PM,78.8,68.0,69,29.86,10.0,SSW,21.9,27.6,N/A,,Scattered Clouds,210,2013-05-28 20:15:00
3:35 PM,78.8,68.0,69,29.85,10.0,SSW,21.9,26.5,N/A,,Mostly Cloudy,210,2013-05-28 20:35:00
3:55 PM,78.8,68.0,69,29.85,10.0,SSW,15.0,27.6,N/A,,Mostly Cloudy,210,2013-05-28 20:55:00
4:15 PM,78.8,68.0,69,29.85,10.0,SSW,18.4,24.2,N/A,,Mostly Cloudy,210,2013-05-28 21:15:00
4:35 PM,78.8,68.0,69,29.85,10.0,SSW,16.1,23.0,N/A,,Mostly Cloudy,210,2013-05-28 21:35:00
4:55 PM,77.0,68.0,74,29.85,10.0,SSW,11.5,-,N/A,,Overcast,210,2013-05-28 21:55:00
5:15 PM,77.0,68.0,74,29.85,10.0,SSW,19.6,23.0,N/A,,Overcast,210,2013-05-28 22:15:00
5:35 PM,77.0,68.0,74,29.85,10.0,SSW,13.8,23.0,N/A,,Overcast,210,2013-05-28 22:35:00
5:55 PM,77.0,68.0,74,29.85,10.0,SSW,12.7,16.1,N/A,,Overcast,210,2013-05-28 22:55:00
6:15 PM,77.0,68.0,74,29.85,10.0,SSW,13.8,-,N/A,,Overcast,200,2013-05-28 23:15:00
6:35 PM,75.2,68.0,78,29.84,10.0,SSW,8.1,-,N/A,,Overcast,200,2013-05-28 23:35:00
6:55 PM,75.2,69.8,83,29.83,10.0,South,6.9,-,N/A,,Overcast,190,2013-05-28 23:55:00
7:15 PM,75.2,69.8,83,29.83,10.0,South,8.1,-,N/A,,Overcast,180,2013-05-29 00:15:00
7:35 PM,75.2,68.0,78,29.83,10.0,South,9.2,-,N/A,,Overcast,190,2013-05-29 00:35:00
7:55 PM,75.2,68.0,78,29.83,10.0,South,9.2,-,N/A,,Overcast,190,2013-05-29 00:55:00
8:15 PM,75.2,68.0,78,29.82,10.0,South,12.7,-,N/A,,Overcast,180,2013-05-29 01:15:00
8:35 PM,75.2,68.0,78,29.81,10.0,South,12.7,19.6,N/A,,Mostly Cloudy,180,2013-05-29 01:35:00
8:55 PM,75.2,68.0,78,29.83,10.0,South,15.0,21.9,N/A,,Mostly Cloudy,190,2013-05-29 01:55:00
9:15 PM,75.2,68.0,78,29.85,10.0,South,17.3,-,N/A,,Overcast,190,2013-05-29 02:15:00
9:35 PM,75.2,66.2,73,29.85,10.0,SSW,18.4,24.2,N/A,,Scattered Clouds,200,2013-05-29 02:35:00
9:55 PM,73.4,68.0,83,29.91,7.0,West,18.4,28.8,0.02,Rain-Thunderstorm,Rain,260,2013-05-29 02:55:00
10:15 PM,68.0,62.6,83,29.93,7.0,WSW,18.4,24.2,0.09,Rain-Thunderstorm,Heavy Thunderstorms and Rain,250,2013-05-29 03:15:00
10:35 PM,68.0,62.6,83,29.89,10.0,SW,6.9,-,0.16,Thunderstorm,Overcast,220,2013-05-29 03:35:00
10:55 PM,68.0,62.6,83,29.89,10.0,SSW,10.4,-,0.16,,Scattered Clouds,200,2013-05-29 03:55:00
11:15 PM,68.0,62.6,83,29.89,10.0,SSW,9.2,-,N/A,,Scattered Clouds,200,2013-05-29 04:15:00
11:35 PM,66.2,62.6,88,29.90,10.0,SSW,6.9,-,N/A,,Clear,200,2013-05-29 04:35:00
11:55 PM,68.0,62.6,83,29.90,10.0,South,8.1,-,N/A,,Scattered Clouds,180,2013-05-29 04:55:00